Hermiston, OR

7:05 PM PDT on May 24, 2017 (GMT -0700)
Hermiston Municipal

Weather History for KHRI - February, 2012

Change the Weather History Date:

Friday, February 3, 2012

  Actual Average Record
Temperature  
Mean Temperature 29 °F 36 °F  
Max Temperature 37 °F 45 °F 71 °F (1909)
Min Temperature 21 °F 27 °F -29 °F (1950)
Degree Days  
Heating Degree Days 36    
Moisture  
Dew Point 26 °F    
Average Humidity 91    
Maximum Humidity 100    
Minimum Humidity 76    
Precipitation  
Precipitation 0.00 in 0.05 in 0.40 in (1907)
Month to date precipitation 0.14  
Year to date precipitation 1.48  
Sea Level Pressure  
Sea Level Pressure 30.39 in    
Wind  
Wind Speed 3 mph (SE)    
Max Wind Speed 9 mph    
Max Gust Speed -    
Visibility 8 miles    
Events      
T = Trace of Precipitation, MM = Missing Value Source: NWS Daily Summary

Daily Weather History Graph

Daily Weather History Graph

Search for Another Location

Airport or City:

Trip Planner

Search our weather history database for the weather conditions in past years. The results will help you decide how hot, cold, wet, or windy it might be!

Date:

Astronomy

Feb. 03, 2012 Rise Set
Actual Time 7:16 AM PST 5:05 PM PST
Civil Twilight 6:45 AM PST 5:36 PM PST
Nautical Twilight 6:09 AM PST 6:12 PM PST
Astronomical Twilight 5:34 AM PST 6:47 PM PST
Moon 1:03 PM PST (2/3) 4:04 AM PST (2/3)
Length of Visible Light 10h 51m
Length of Day
9h 48m
Waxing Gibbous, 82% of the Moon is Illuminated
Feb 3
Waxing Gibbous
Feb 7
Full
Feb 14
Last Quarter
Feb 21
New
Feb 29
First Quarter

Hourly Weather History & Observations

Time (PST) Temp. Windchill Dew Point Humidity Pressure Visibility Wind Dir Wind Speed Gust Speed Precip Events Conditions
12:53 AM 26.1 °F - 24.1 °F 92% 30.41 in 10.0 mi Calm Calm - N/A   Clear
1:53 AM 24.1 °F - 23.0 °F 96% 30.42 in 5.0 mi Calm Calm - N/A   Clear
2:53 AM 23.0 °F 17.0 °F 21.9 °F 96% 30.42 in 10.0 mi SSE 4.6 mph - N/A   Clear
3:53 AM 24.1 °F 17.0 °F 21.9 °F 91% 30.42 in 10.0 mi SSE 5.8 mph - N/A   Clear
4:53 AM 24.1 °F 17.0 °F 23.0 °F 96% 30.43 in 10.0 mi South 5.8 mph - N/A   Clear
5:53 AM 26.1 °F 18.4 °F 25.0 °F 96% 30.43 in 5.0 mi SE 6.9 mph - N/A   Partly Cloudy
6:27 AM 28.4 °F 23.3 °F 26.6 °F 93% 30.41 in 7.0 mi ESE 4.6 mph - N/A   Mostly Cloudy
6:53 AM 28.0 °F 24.2 °F 28.0 °F 100% 30.43 in 9.0 mi SE 3.5 mph - N/A   Overcast
7:53 AM 28.9 °F 25.2 °F 28.0 °F 96% 30.44 in 8.0 mi SSE 3.5 mph - N/A   Overcast
8:53 AM 30.0 °F 25.2 °F 28.9 °F 96% 30.44 in 8.0 mi SE 4.6 mph - N/A   Overcast
9:53 AM 33.1 °F 28.7 °F 32.0 °F 96% 30.44 in 10.0 mi SSE 4.6 mph - N/A   Overcast
10:48 AM 35.6 °F 32.8 °F 30.2 °F 81% 30.42 in 10.0 mi East 3.5 mph - N/A   Overcast
10:53 AM 35.1 °F - 30.0 °F 82% 30.44 in 10.0 mi Calm Calm - N/A   Overcast
11:18 AM 35.6 °F - 30.2 °F 81% 30.41 in - Calm Calm - N/A   Unknown
11:49 AM - - - N/A% 30.40 in 10.0 mi Calm Calm - N/A   Overcast
11:53 AM - - - N/A% 30.40 in 10.0 mi East 3.5 mph - N/A   Overcast
12:53 PM 36.0 °F - 30.0 °F 79% 30.40 in 10.0 mi Calm Calm - N/A   Overcast
1:53 PM 37.0 °F 31.6 °F 30.0 °F 76% 30.38 in 10.0 mi ESE 6.9 mph - N/A   Scattered Clouds
2:53 PM 37.0 °F 30.4 °F 30.9 °F 79% 30.37 in 10.0 mi SE 9.2 mph - N/A   Partly Cloudy
3:53 PM 37.0 °F 30.4 °F 30.9 °F 79% 30.36 in 10.0 mi SE 9.2 mph - N/A   Clear
4:53 PM 34.0 °F 29.8 °F 28.9 °F 82% 30.35 in 10.0 mi SE 4.6 mph - N/A   Clear
5:53 PM 30.0 °F 26.5 °F 28.0 °F 92% 30.37 in 10.0 mi SE 3.5 mph - N/A   Clear
6:53 PM 27.0 °F - 26.1 °F 96% 30.36 in 10.0 mi Calm Calm - N/A   Clear
7:53 PM 26.1 °F 21.9 °F 26.1 °F 100% 30.37 in 8.0 mi ESE 3.5 mph - N/A   Clear
8:34 PM 23.0 °F - 21.2 °F 93% 30.34 in 1.5 mi Calm Calm - N/A   Clear
8:53 PM 21.9 °F - 21.9 °F 100% 30.37 in 0.8 mi Calm Calm - N/A   Clear
9:10 PM 24.8 °F 20.5 °F 23.0 °F 93% 30.35 in 2.0 mi East 3.5 mph - N/A   Clear
9:17 PM 24.8 °F - 23.0 °F 93% 30.34 in 5.0 mi Calm Calm - N/A   Clear
9:53 PM 23.0 °F 18.4 °F 21.9 °F 96% 30.37 in 6.0 mi East 3.5 mph - N/A   Clear
10:53 PM 25.0 °F - 23.0 °F 92% 30.37 in 9.0 mi Calm Calm - N/A   Clear
11:53 PM 23.0 °F - 21.0 °F 92% 30.36 in 8.0 mi Calm Calm - N/A   Clear